FW8285 Weather Reports


Display with metric or nautical units.
time (UTC)temp
F
wind
direction
speed
MPH
gust
MPH
rain 1hr
in
rain 24hr
in
rain mn
in
humidity
%
barometer
mb
20260503013037 39 0 0.0 1.0 0.00 0.04 0.04 69 1011.9
20260503011553 40 0 0.0 3.0 0.00 0.04 0.04 68 1012.0
20260503010042 40 303 0.0 3.0 0.00 0.04 0.04 67 1011.9
20260503004541 41 278 1.0 4.0 0.00 0.04 0.04 65 1011.8
20260503003042 42 275 1.0 7.0 0.00 0.04 0.04 64 1011.6
20260503001540 43 270 1.0 6.0 0.00 0.04 0.04 63 1011.6
20260503000039 43 284 2.0 11.0 0.00 0.04 0.04 60 1011.6
20260502234607 44 290 2.0 10.0 0.00 0.04 0.04 58 1011.5
20260502233042 45 301 2.0 10.0 0.00 0.04 0.04 56 1011.4
20260502231541 46 281 4.0 12.0 0.00 0.04 0.04 54 1011.3
20260502230041 47 256 5.0 16.0 0.00 0.04 0.04 52 1011.3
20260502224540 48 304 5.0 15.0 0.00 0.04 0.04 51 1011.1
20260502223059 47 277 3.0 16.0 0.00 0.04 0.04 52 1011.2
20260502221544 48 288 4.0 12.0 0.00 0.04 0.04 51 1011.0
20260502220043 48 253 4.0 11.0 0.00 0.04 0.04 52 1011.0
20260502214542 49 320 3.0 12.0 0.00 0.04 0.04 50 1011.0
20260502213046 48 120 3.0 14.0 0.00 0.04 0.04 51 1010.9
20260502211539 48 325 6.0 13.0 0.00 0.04 0.04 49 1010.9
20260502210049 49 266 5.0 13.0 0.00 0.04 0.04 48 1010.8
20260502204543 49 249 7.0 15.0 0.00 0.04 0.04 46 1010.9
20260502203051 50 299 4.0 13.0 0.00 0.04 0.04 47 1010.8
20260502201542 50 290 5.0 19.0 0.00 0.04 0.04 47 1010.9
20260502200042 51 315 5.0 14.0 0.00 0.04 0.04 44 1011.0
20260502194540 52 271 5.0 14.0 0.00 0.04 0.04 48 1011.1
20260502193057 50 268 5.0 17.0 0.00 0.04 0.04 48 1011.3
20260502191543 51 276 7.0 17.0 0.00 0.04 0.04 47 1011.2
20260502190046 50 274 5.0 23.0 0.00 0.04 0.04 51 1011.4
20260502184548 51 300 7.0 18.0 0.00 0.04 0.04 49 1011.3
20260502183040 51 261 8.0 23.0 0.00 0.04 0.04 50 1011.1
20260502181542 51 250 6.0 18.0 0.00 0.04 0.04 51 1011.0
20260502163042 49 250 7.0 18.0 0.00 0.04 0.04 59 1011.3
20260502161543 48 289 5.0 14.0 0.00 0.04 0.04 63 1011.4
20260502151607 49 259 3.0 11.0 0.00 0.04 0.04 69 1011.4
20260502123046 43 288 4.0 10.0 0.00 0.04 0.04 85 1011.6
20260502121545 43 282 4.0 10.0 0.00 0.04 0.04 87 1011.6
20260502114541 41 261 4.0 10.0 0.00 0.04 0.04 91 1011.7
20260502113043 41 279 3.0 10.0 0.00 0.04 0.04 93 1011.5
20260502111541 41 263 4.0 9.0 0.00 0.04 0.04 94 1011.4
20260502110038 40 273 2.0 7.0 0.00 0.04 0.04 94 1011.3
20260502104544 40 279 3.0 9.0 0.00 0.04 0.04 94 1011.1
20260502103042 40 264 2.0 8.0 0.00 0.04 0.04 94 1011.0
20260502101554 40 262 3.0 8.0 0.00 0.04 0.04 94 1010.9
20260502070054 44 0 0.0 3.0 0.00 0.02 0.02 93 1010.0
20260502064547 44 0 0.0 1.0 0.00 0.02 0.02 93 1010.4
20260502063046 44 0 0.0 2.0 0.00 0.02 0.02 93 1010.4
20260502061543 44 0 0.0 0.0 0.00 0.02 0.02 93 1010.1
20260502060045 44 0 0.0 0.0 0.00 0.02 0.02 92 1010.4
20260502054558 44 0 0.0 3.0 0.00 0.02 0.02 92 1010.6
20260502053043 44 0 0.0 1.0 0.00 0.02 0.02 92 1010.6
20260502051547 44 0 0.0 0.0 0.02 0.02 0.02 91 1010.7
20260502050037 44 0 0.0 0.0 0.02 0.02 0.02 90 1010.8
20260502044544 45 0 0.0 0.0 0.02 0.02 0.02 89 1010.7
20260502043053 45 0 0.0 0.0 0.02 0.02 0.02 88 1010.6
20260502041604 45 268 0.0 2.0 0.00 0.00 0.00 86 1010.9
20260502040050 45 0 0.0 0.0 0.00 0.00 0.00 86 1010.7
20260502034545 46 0 0.0 0.0 0.00 0.00 0.00 85 1010.7
20260502033049 46 0 0.0 4.0 0.00 0.00 0.00 84 1010.8
20260502031537 47 0 0.0 3.0 0.00 0.00 0.00 81 1010.8
20260502030100 47 0 0.0 4.0 0.00 0.00 0.00 80 1010.8
20260502024553 48 170 0.0 5.0 0.00 0.00 0.00 76 1010.8
20260502023103 49 148 3.0 6.0 0.00 0.00 0.00 70 1010.9
20260502021544 49 0 0.0 3.0 0.00 0.00 0.00 64 1010.9
20260502020042 50 0 0.0 4.0 0.00 0.00 0.00 62 1010.9
20260502014541 50 257 0.0 3.0 0.00 0.00 0.00 62 1010.9